Moses Lake, WA
on Tuesday, February 26, 2013

Tuesday
Previous Day Next Day
Daily Summary
 ActualAverageRecord
Temperature
Mean Temperature °F 38°F  
Max Temperature 48°F 48°F 64°F (1986)
Min Temperature 25°F 28°F 7°F (2011)
Degree Days
Heating Degree Days 28 27  
Month to date heating degree days 716 779  
Since 1 July heating degree days 4070 4453  
Moisture
Dew Point 23°F   
Average Humidity 60    
Maximum Humidity 88    
Minimum Humidity 31    
Precipitation
Precipitation 0.00 in 0.03 in 0.26 in (1980)
Month to date precipitation 0.01 0.75  
Year to date precipitation 0.29 1.89  
Wind
Wind Speed 7 mph   
Max Wind Speed 15 mph   
Max Gust Speed 18 mph   
Visibility 10 miles   
Events     

Key: T is trace of precipitation, MM is missing value
Source: NWS Daily Summary
Time(PST)TemperatureDew PointHumidity Pressure Visibility Wind DirectionWind SpeedGust SpeedPrecipitationEvents Conditions
12:52 AM 33.1°F 24.1°F 70% 30.20 in 10.0 miles SSW 5.8 mph - N/A   Clear
1:52 AM 33.1°F 24.1°F 70% 30.21 in 10.0 miles SW 6.9 mph - N/A   Clear
2:52 AM 33.1°F 23.0°F 66% 30.22 in 10.0 miles WSW 10.4 mph - N/A   Clear
3:52 AM 32.0°F 23.0°F 69% 30.23 in 10.0 miles WSW 8.1 mph - N/A   Clear
4:52 AM 30.9°F 23.0°F 72% 30.25 in 10.0 miles SW 4.6 mph - N/A   Clear
5:52 AM 26.1°F 21.0°F 81% 30.28 in 10.0 miles SSE 3.5 mph - N/A   Clear
6:52 AM 25.0°F 21.0°F 85% 30.30 in 10.0 miles SSE 6.9 mph - N/A   Clear
7:52 AM 28.9°F 23.0°F 78% 30.31 in 10.0 miles SE 4.6 mph - N/A   Clear
8:52 AM 34.0°F 25.0°F 70% 30.33 in 10.0 miles SE 4.6 mph - N/A   Clear
9:52 AM 39.0°F 25.0°F 57% 30.34 in 10.0 miles South 4.6 mph - N/A   Clear
10:52 AM 43.0°F 23.0°F 45% 30.33 in 10.0 miles SSE 8.1 mph - N/A   Clear
11:52 AM 46.0°F 21.9°F 39% 30.32 in 10.0 miles SW 4.6 mph - N/A   Clear
12:52 PM 48.0°F 19.9°F 33% 30.30 in 10.0 miles South 11.5 mph 16.1 mph N/A   Clear
1:52 PM 48.0°F 21.9°F 36% 30.29 in 10.0 miles South 8.1 mph - N/A   Clear
2:52 PM 48.0°F 19.9°F 33% 30.28 in 10.0 miles South 11.5 mph - N/A   Clear
3:52 PM 46.9°F 19.9°F 34% 30.27 in 10.0 miles SSE 9.2 mph - N/A   Clear
4:52 PM 45.0°F 21.9°F 40% 30.28 in 10.0 miles South 12.7 mph - N/A   Clear
5:52 PM 41.0°F 25.0°F 53% 30.27 in 10.0 miles SSE 9.2 mph - N/A   Clear
6:52 PM 36.0°F 25.0°F 64% 30.27 in 10.0 miles SSE 4.6 mph - N/A   Clear
7:52 PM 37.0°F 26.1°F 65% 30.26 in 10.0 miles SE 6.9 mph - N/A   Clear
8:52 PM 33.8°F 24.8°F 70% 30.21 in 10.0 miles SE 6.9 mph - N/A   Partly Cloudy
9:52 PM 35.1°F 26.1°F 70% 30.25 in 10.0 miles ENE 3.5 mph - N/A   Mostly Cloudy
10:52 PM 36.0°F 26.1°F 67% 30.24 in 10.0 miles Calm Calm - N/A   Overcast
11:52 PM 33.1°F 25.0°F 72% 30.22 in 10.0 miles Calm Calm - N/A   Clear
Moon Phase
Feb. 26 Mar. 04 Mar. 11 Mar. 19 Mar. 27
Sunrise:06:42 AM (PST) Moon Rise:07:09 PM (PST)2/26
Sunset:05:38 PM (PST) Moon Set:06:40 AM (PST)2/26

Copyright © 2014 The Weather Underground, Inc.